SL-12 R/B(AUX MOTOR), 13609

Orbit data source: Space-Track

SL-12 R/B(AUX MOTOR), 13609 is space debris in HEO originally from a launch on Tue, 12 Oct 1982 UTC launched from the Tyuratam Missile And Space Complex (TTMTR). Debris objects in space refer to the collection of defunct objects orbiting the Earth. Examples of debris include non-operational satellites, rocket bodies, and fragments generated from explosions, collisions, or faulty payload assembly.

Loading next visibility...
Identifier
13609, 1982-100G
Orbit
HEO
Country
Flag of CISCIS
Related business
Manufacturer
NPO Energiya
Mission
Spacecraft
Bus & Motor
SOZ, Unknown motor
Mass
Wet unknown, ~60 kg dry
Launch date (UTC)
1982-10-12 (44 years ago)
Launch vehicle
Unknown
Launch site
Tyuratam Missile And Space Complex (TTMTR)
Object type
Payload
Rocket body
Debris
Shape & HBR
Unknown
Radar Cross Section
Large (>1 m²)

Expand to show TLE details & history
Last TLE update: 1 day ago

TLE from 1 day ago
0 SL-12 R/B(AUX MOTOR)
1 13609U 82100G   26163.20394262  .00007076  00000-0  84060-3 0  9997
2 13609  52.0736 341.6112 4777227 345.6372   4.4890  6.01784349814301
Epoch: 2026-06-12T04:53Z
TLE epoch observation values (Epoch: 2026-06-12T04:53:40.642Z)
Latitude
0.00001°
Longitude
7.65581°
Altitude
363.853 km
Speed
9.33 km/s
True Right ascension
22h 46m 26s
True Declination
0° 00' 00"
Sunlit
Object was in daylight at epoch
Visualization orbit readout
Latitude
Unknown
Longitude
Unknown
Altitude
Unknown
Speed
Unknown
Apparent Right ascension
Unknown
Apparent Declination
Unknown
Sunlit
N/A
Visualization observer readout
Local Sidereal Time
18:35:19
Azimuth
Unknown
Elevation
Unknown
Doppler factor
Unknown
Orbital elements
Apogee altitude
12,489.29 km
Perigee altitude
290.251 km
Semi-major axis
12,767.907 km
Eccentricity
0.47772
Inclination
52.0736°
RAAN
341.6112°
Arg. of periapsis
345.6372°
True anomaly
14.35975°
Mean anomaly
4.489°
Eccentric anomaly
8.5659°
Mean motion
1.5044 °/min
Orbital period
239.3 mins
BSTAR
0.0008406
Loading maneuver chart data...
Computing Atmospheric mass density...
Loading historical data...
Loading historical data...
Loading historical data...
Loading historical data...
Loading historical data...
Loading historical data...
Loading historical data...

Documentation

Showing up to 5 results
|